sat.trackr.live / text

‹ back to catalog

LEMU NGE

NORAD 60532 · 2024-149BS

PAYLOAD ACTIVE UNKNOWN

§ Identity

Operator
Country
CHLE
Launch date
2024-08-16
Launch site
AFWTR
Launch vehicle
Mass (kg)
RCS (m²)

External: N2YO · Heavens-Above · Gunter

§ Orbital elements

Epoch: 2026-09-22T16:42:05.378976Z

Period
96.30 min
Inclination
97.6767°
Eccentricity
0.0002507
Mean motion
14.95270195 rev/d
Perigee alt
579.8 km
Apogee alt
583.3 km
Semi-major
6,959.7 km
B*
1.3958e-4
RAAN
338.6639°
Arg perigee
77.4515°
Mean anomaly
282.6986°
Rev number
11,452

§ Raw data

LEMU NGE1 60532U 24149BS  26265.69589559  .00001480  00000+0  13958-3 0  99942 60532  97.6767 338.6639 0002507  77.4515 282.6986 14.95270195114528

JSON: /api/v1/satellites/60532 · /tle

For live sub-satellite position, see the globe view (requires WebGL).

§ Visibility from observer

Set your observer location to see the next 7 days of passes ≥ 10°. The values pass through the URL so the page stays shareable.

No JS? Fill the form by hand. The geolocation button needs JavaScript.

§ Radio — SatNOGS DB

ModeDescriptionDownlinkUplink
BPSK S-band telemetry 2.208 GHz

1 transmitter · refreshed weekly from db.satnogs.org